EDT,Max TemperatureF,Mean TemperatureF,Min TemperatureF,Max Dew PointF,MeanDew PointF,Min DewpointF,Max Humidity, Mean Humidity, Min Humidity, Max Sea Level PressureIn, Mean Sea Level PressureIn, Min Sea Level PressureIn, Max VisibilityMiles, Mean VisibilityMiles, Min VisibilityMiles, Max Wind SpeedMPH, Mean Wind SpeedMPH, Max Gust SpeedMPH,PrecipitationIn, CloudCover, Events, WindDirDegrees
2013-4-1,66,54,41,51,41,17,100,70,37,29.95,29.77,29.68,10,10,7,22,10,29,0.02,2,Rain,249
2013-4-2,48,40,32,19,16,14,54,38,28,30.13,30.06,29.98,10,10,10,25,11,29,0.00,0,,286
2013-4-3,50,40,30,18,15,10,59,36,24,30.35,30.23,30.15,10,10,10,24,11,33,0.00,1,,282
2013-4-4,47,36,27,37,23,15,94,54,38,30.43,30.29,30.12,10,10,10,13,7,,0.01,1,Rain,171
2013-4-5,63,50,37,46,37,19,100,83,24,30.11,29.93,29.78,10,9,5,18,8,24,0.68,6,Rain,339
2013-4-6,52,42,33,31,24,19,77,50,28,30.33,30.25,30.03,10,10,10,18,10,26,0.00,0,,1
2013-4-7,65,50,35,45,38,31,91,65,40,30.33,30.17,30.02,10,10,10,23,11,30,0.00,2,,168
2013-4-8,73,62,51,54,49,44,83,62,44,30.08,30.03,29.99,10,10,10,15,10,,0.00,1,Rain,169
2013-4-9,83,72,61,56,54,52,72,55,35,30.05,29.99,29.94,10,10,10,14,12,20,0.00,1,,208
2013-4-10,87,76,64,58,56,54,71,52,34,29.95,29.88,29.79,10,10,10,31,13,40,0.00,1,,212
2013-4-11,75,62,49,61,55,50,100,91,58,29.91,29.88,29.83,10,9,4,23,10,29,0.00,5,,87
2013-4-12,70,58,47,70,54,48,100,100,98,29.89,29.71,29.62,10,4,0,18,12,25,0.88,8,Fog-Rain,34
2013-4-13,63,52,42,48,44,40,100,85,42,29.95,29.85,29.71,10,9,5,17,11,,0.02,3,Rain,318
2013-4-14,64,52,41,47,42,34,100,72,34,30.16,30.07,29.98,10,10,7,14,5,23,0.00,0,,291
2013-4-15,56,52,49,50,46,41,92,80,66,30.33,30.27,30.16,10,10,10,17,8,22,0.01,4,Rain,97
2013-4-16,73,61,49,58,54,49,100,82,56,30.33,30.26,30.14,10,10,10,18,8,16,0.00,4,,128
2013-4-17,73,63,54,62,56,46,99,81,63,30.27,30.20,30.12,10,10,10,17,10,23,0.00,3,,134
2013-4-18,64,59,54,61,57,48,100,95,78,30.29,30.21,30.06,10,10,7,17,10,25,0.00,7,,112
2013-4-19,79,69,59,69,65,59,100,89,60,30.05,29.82,29.66,10,8,2,39,16,53,0.32,5,Rain,184
2013-4-20,59,56,46,66,44,28,100,76,33,30.31,29.94,29.72,10,9,5,24,16,31,0.53,5,Rain,298
2013-4-21,53,45,37,34,28,22,72,54,38,30.60,30.53,30.33,10,10,10,16,9,17,0.00,0,,26
2013-4-22,54,47,41,43,38,30,87,71,58,30.59,30.50,30.40,10,10,10,20,11,26,0.00,5,,56
2013-4-23,55,49,44,46,43,39,89,81,67,30.40,30.23,30.14,10,10,10,15,12,22,0.00,8,,20
2013-4-24,73,57,41,57,49,41,100,85,51,30.13,30.03,29.83,10,8,3,22,8,31,0.00,2,,194
2013-4-25,63,54,46,55,37,28,81,55,27,30.30,30.18,29.92,10,10,10,22,13,32,0.00,3,Rain,296
2013-4-26,65,52,41,41,37,31,88,56,31,30.43,30.38,30.30,10,10,10,14,6,21,0.00,0,,291
2013-4-27,68,53,39,42,37,32,86,50,28,30.43,30.37,30.31,10,7,1,8,5,,0.00,0,,118
2013-4-28,64,54,44,51,42,36,94,64,41,30.31,30.26,30.19,10,10,10,13,6,21,0.00,3,Rain,141
2013-4-29,58,55,51,59,56,50,100,100,88,30.20,30.14,30.10,10,8,5,17,7,21,0.59,8,Rain,120
2013-4-30,62,57,51,55,54,46,100,95,69,30.28,30.17,30.11,10,5,1,17,10,23,0.34,8,Rain,80